• In Uzbekistan
  • List of Countries
  • For 7 days
  • Water Temperature
  • Satellite Maps
  • Weather Map
  • Weather Widgets
  • user-avatar
    Login

    Hourly Weather Urganch

    Today, 26 April, Friday

    Time Temperature Precipitation Wind Pressure Humidity
    00:00 +14°C° 0 mm 3 mps 759 mmHg 37%
    01:00 +14°C° 0 mm 3 mps 759 mmHg 38%
    02:00 +14°C° 0 mm 3 mps 759 mmHg 40%
    03:00 +13°C° 0 mm 3 mps 759 mmHg 42%
    04:00 +13°C° 0 mm 3 mps 758 mmHg 45%
    05:00 +13°C° 0 mm 3 mps 759 mmHg 45%
    06:00 +14°C° 0 mm 3 mps 759 mmHg 44%
    07:00 +16°C° 0 mm 3 mps 759 mmHg 43%
    08:00 +17°C° 0 mm 3 mps 759 mmHg 39%
    09:00 +18°C° 0 mm 3 mps 759 mmHg 34%
    10:00 +18°C° 0 mm 4 mps 759 mmHg 32%
    11:00 +19°C° 0 mm 4 mps 759 mmHg 31%
    12:00 +19°C° 0 mm 4 mps 759 mmHg 31%
    13:00 +19°C° 0 mm 4 mps 759 mmHg 30%
    14:00 +20°C° 0 mm 4 mps 759 mmHg 29%
    15:00 +20°C° 0 mm 4 mps 759 mmHg 28%
    16:00 +20°C° 0 mm 4 mps 758 mmHg 28%
    17:00 +20°C° 0 mm 3 mps 758 mmHg 28%
    18:00 +20°C° 0 mm 3 mps 758 mmHg 29%
    19:00 +19°C° 0 mm 3 mps 758 mmHg 29%
    20:00 +19°C° 0 mm 3 mps 758 mmHg 31%
    21:00 +18°C° 0 mm 2 mps 759 mmHg 32%
    22:00 +18°C° 0 mm 2 mps 759 mmHg 34%
    23:00 +17°C° 0 mm 2 mps 759 mmHg 36%

    Tomorrow, 27 April, Saturday

    Time Temperature Precipitation Wind Pressure Humidity
    00:00 +16°C° 0 mm 2 mps 759 mmHg 38%
    01:00 +16°C° 0 mm 2 mps 759 mmHg 40%
    02:00 +15°C° 0 mm 2 mps 759 mmHg 42%
    03:00 +15°C° 0 mm 2 mps 759 mmHg 43%
    04:00 +14°C° 0 mm 1 mps 759 mmHg 45%
    05:00 +15°C° 0 mm 1 mps 759 mmHg 43%
    06:00 +16°C° 0 mm 1 mps 759 mmHg 40%
    07:00 +17°C° 0 mm 2 mps 759 mmHg 37%
    08:00 +18°C° 0 mm 2 mps 759 mmHg 34%
    09:00 +19°C° 0 mm 2 mps 759 mmHg 30%
    10:00 +20°C° 0 mm 3 mps 759 mmHg 27%
    11:00 +21°C° 0 mm 2 mps 759 mmHg 25%
    12:00 +23°C° 0 mm 2 mps 759 mmHg 24%
    13:00 +23°C° 0 mm 1 mps 759 mmHg 22%
    14:00 +24°C° 0 mm 1 mps 759 mmHg 22%
    15:00 +24°C° 0 mm 1 mps 758 mmHg 21%
    16:00 +24°C° 0 mm 1 mps 758 mmHg 21%
    17:00 +24°C° 0 mm 2 mps 758 mmHg 22%
    18:00 +24°C° 0 mm 2 mps 758 mmHg 23%
    19:00 +24°C° 0 mm 2 mps 758 mmHg 23%
    20:00 +23°C° 0 mm 2 mps 758 mmHg 25%
    21:00 +21°C° 0 mm 2 mps 758 mmHg 26%
    22:00 +21°C° 0 mm 2 mps 758 mmHg 28%
    23:00 +20°C° 0 mm 2 mps 758 mmHg 28%

    Day after tomorrow, 28 April, Sunday

    Time Temperature Precipitation Wind Pressure Humidity
    00:00 +20°C° 0 mm 2 mps 758 mmHg 28%
    01:00 +19°C° 0 mm 2 mps 757 mmHg 28%
    02:00 +18°C° 0 mm 2 mps 757 mmHg 29%
    03:00 +18°C° 0 mm 2 mps 757 mmHg 30%
    04:00 +18°C° 0 mm 1 mps 757 mmHg 30%
    05:00 +18°C° 0 mm 2 mps 757 mmHg 29%
    06:00 +19°C° 0 mm 2 mps 757 mmHg 28%
    07:00 +20°C° 0 mm 2 mps 757 mmHg 28%
    08:00 +21°C° 0 mm 3 mps 757 mmHg 25%
    09:00 +22°C° 0 mm 4 mps 757 mmHg 23%
    10:00 +25°C° 0 mm 5 mps 756 mmHg 20%
    11:00 +25°C° 0 mm 5 mps 756 mmHg 18%
    12:00 +26°C° 0 mm 5 mps 756 mmHg 17%
    13:00 +26°C° 0 mm 5 mps 755 mmHg 15%
    14:00 +27°C° 0 mm 4 mps 755 mmHg 14%
    15:00 +27°C° 0 mm 4 mps 754 mmHg 14%
    16:00 +27°C° 0 mm 4 mps 753 mmHg 13%
    17:00 +26°C° 0 mm 3 mps 753 mmHg 14%
    18:00 +26°C° 0 mm 3 mps 753 mmHg 14%
    19:00 +25°C° 0 mm 2 mps 753 mmHg 15%
    20:00 +24°C° 0 mm 2 mps 753 mmHg 16%
    21:00 +24°C° 0 mm 2 mps 753 mmHg 17%
    22:00 +23°C° 0 mm 2 mps 753 mmHg 17%
    23:00 +21°C° 0 mm 2 mps 752 mmHg 19%

    29 April, Monday

    Time Temperature Precipitation Wind Pressure Humidity
    00:00 +21°C° 0 mm 1 mps 752 mmHg 20%
    01:00 +20°C° 0 mm 1 mps 752 mmHg 21%
    02:00 +20°C° 0 mm 1 mps 751 mmHg 22%
    03:00 +17°C° 0 mm 0 mps 751 mmHg 24%
    04:00 +16°C° 0 mm 0 mps 751 mmHg 25%
    05:00 +18°C° 0 mm 0 mps 751 mmHg 23%
    06:00 +19°C° 0 mm 0 mps 751 mmHg 21%
    07:00 +21°C° 0 mm 0 mps 751 mmHg 19%
    08:00 +24°C° 0 mm 1 mps 751 mmHg 17%
    09:00 +25°C° 0 mm 1 mps 751 mmHg 15%
    10:00 +26°C° 0 mm 2 mps 751 mmHg 13%
    11:00 +27°C° 0 mm 2 mps 750 mmHg 12%
    12:00 +28°C° 0 mm 3 mps 750 mmHg 12%
    13:00 +28°C° 0 mm 4 mps 749 mmHg 11%
    14:00 +29°C° 0 mm 4 mps 749 mmHg 11%
    15:00 +29°C° 0 mm 5 mps 749 mmHg 11%
    16:00 +30°C° 0 mm 5 mps 748 mmHg 11%
    17:00 +29°C° 0 mm 5 mps 748 mmHg 11%
    18:00 +29°C° 0 mm 4 mps 748 mmHg 12%
    19:00 +28°C° 0 mm 4 mps 748 mmHg 13%
    20:00 +27°C° 0 mm 3 mps 748 mmHg 14%
    21:00 +26°C° 0 mm 3 mps 748 mmHg 15%
    22:00 +25°C° 0 mm 3 mps 748 mmHg 16%
    23:00 +24°C° 0 mm 3 mps 748 mmHg 17%

    30 April, Tuesday

    Time Temperature Precipitation Wind Pressure Humidity
    00:00 +24°C° 0 mm 3 mps 748 mmHg 19%
    01:00 +22°C° 0 mm 3 mps 748 mmHg 20%
    02:00 +21°C° 0 mm 3 mps 748 mmHg 22%
    03:00 +21°C° 0 mm 3 mps 748 mmHg 24%
    04:00 +20°C° 0 mm 4 mps 748 mmHg 25%
    05:00 +21°C° 0 mm 4 mps 749 mmHg 26%
    06:00 +21°C° 0 mm 5 mps 749 mmHg 27%
    07:00 +22°C° 0 mm 5 mps 750 mmHg 27%
    08:00 +23°C° 0 mm 5 mps 750 mmHg 24%
    09:00 +26°C° 0 mm 5 mps 750 mmHg 21%
    10:00 +27°C° 0 mm 5 mps 751 mmHg 18%
    11:00 +27°C° 0 mm 5 mps 751 mmHg 17%
    12:00 +28°C° 0 mm 5 mps 751 mmHg 16%
    13:00 +29°C° 0 mm 5 mps 751 mmHg 15%
    14:00 +29°C° 0 mm 5 mps 750 mmHg 15%
    15:00 +29°C° 0 mm 5 mps 750 mmHg 15%
    16:00 +29°C° 0 mm 5 mps 750 mmHg 16%
    17:00 +28°C° 0 mm 5 mps 751 mmHg 19%
    18:00 +27°C° 0 mm 5 mps 751 mmHg 22%
    19:00 +27°C° 0 mm 4 mps 751 mmHg 25%
    20:00 +25°C° 0 mm 5 mps 751 mmHg 32%
    21:00 +22°C° 0 mm 6 mps 752 mmHg 38%
    22:00 +20°C° 0 mm 7 mps 752 mmHg 44%
    23:00 +20°C° 0 mm 7 mps 752 mmHg 44%

    1 May, Wednesday

    Time Temperature Precipitation Wind Pressure Humidity
    00:00 +19°C° 0 mm 6 mps 752 mmHg 44%
    01:00 +17°C° 0 mm 6 mps 752 mmHg 44%
    02:00 +17°C° 0 mm 6 mps 752 mmHg 41%
    03:00 +16°C° 0 mm 5 mps 752 mmHg 39%
    04:00 +16°C° 0 mm 5 mps 753 mmHg 36%
    05:00 +16°C° 0 mm 5 mps 753 mmHg 34%
    06:00 +16°C° 0 mm 5 mps 753 mmHg 32%
    07:00 +16°C° 0 mm 5 mps 754 mmHg 31%
    08:00 +19°C° 0 mm 4 mps 754 mmHg 29%
    09:00 +21°C° 0 mm 4 mps 754 mmHg 28%
    10:00 +22°C° 0 mm 4 mps 754 mmHg 26%
    11:00 +24°C° 0 mm 3 mps 754 mmHg 25%
    12:00 +25°C° 0 mm 3 mps 753 mmHg 24%
    13:00 +26°C° 0 mm 3 mps 753 mmHg 23%
    14:00 +26°C° 0 mm 3 mps 753 mmHg 22%
    15:00 +26°C° 0 mm 4 mps 753 mmHg 21%
    16:00 +27°C° 0 mm 4 mps 752 mmHg 19%
    17:00 +26°C° 0 mm 4 mps 753 mmHg 19%
    18:00 +25°C° 0 mm 5 mps 753 mmHg 18%
    19:00 +23°C° 0 mm 5 mps 753 mmHg 18%
    20:00 +23°C° 0 mm 5 mps 753 mmHg 18%
    21:00 +22°C° 0 mm 5 mps 753 mmHg 19%
    22:00 +21°C° 0 mm 5 mps 754 mmHg 20%
    23:00 +21°C° 0 mm 5 mps 753 mmHg 21%
    Show more